Weather History for Toledo, OH

Change the Weather History Date:

Friday, June 28, 2013

  Actual Average Record
Temperature  
Mean Temperature 23 °C 23 °C  
Max Temperature 28 °C 29 °C 39 °C (2012)
Min Temperature 17 °C 17 °C 8 °C (1970)
Degree Days  
Heating Degree Days 0 0  
Month to date heating degree days 31 35  
Since 1 June heating degree days 31 35  
Since 1 July heating degree days 6165 6145  
Cooling Degree Days 8 8  
Month to date cooling degree days 147 154  
Year to date cooling degree days 241 207  
Since 1 June cooling degree days 147 154  
Growing Degree Days 23 (Base 50)    
Moisture  
Dew Point 17 °C    
Average Humidity 76    
Maximum Humidity 100    
Minimum Humidity 51    
Precipitation  
Precipitation 0.51 mm 2.79 mm 3.28 mm (1973)
Month to date precipitation 6.09 3.35  
Year to date precipitation 20.59 16.72  
Snow  
Snow 0.00 cm 0.00 cm - ()
Month to date snowfall 0.0 0.0  
Since 1 June snowfall 0.0 0.0  
Since 1 July snowfall 22.4 37.6  
Snow Depth 0.00 cm    
Sea Level Pressure  
Sea Level Pressure 1002 hPa    
Wind  
Wind Speed 10 km/h (NW)    
Max Wind Speed 23 km/h    
Max Gust Speed 34 km/h    
Visibility 15 kilometers    
Events Rain , Thunderstorm    
T = Trace of Precipitation, MM = Missing Value Source: NWS Daily Summary

Daily Weather History Graph

Daily Weather History Graph

Search for Another Location

Airport:

Trip Planner

Search our weather history database for the weather conditions in past years. The results will help you decide how hot, cold, wet, or windy it might be!

Date:

Astronomy

Jun. 28, 2013 Rise Set
Actual Time 6:03 AM EDT 9:13 PM EDT
Civil Twilight 5:29 AM EDT 9:47 PM EDT
Nautical Twilight 4:45 AM EDT 10:31 PM EDT
Astronomical Twilight 3:53 AM EDT 11:23 PM EDT
Moon 12:05 AM EDT (6/28) 12:15 PM EDT (6/28)
Length of Visible Light 16h 17m
Length of Day
15h 09m
Waning Gibbous, 66% of the Moon is Illuminated
Jun 28
Waning Gibbous
Jun 30
Last Quarter
Jul 8
New
Jul 15
First Quarter
Jul 22
Full

Hourly Weather History & Observations

Time (EDT) Temp. Heat Index Dew Point Humidity Pressure Visibility Wind Dir Wind Speed Gust Speed Precip Events Conditions
12:52 AM 19.4 °C - 18.3 °C 93% 1003.1 hPa 16.1 km WSW 9.3 km/h / 2.6 m/s - N/A   Clear
1:52 AM 19.4 °C - 18.3 °C 93% 1002.7 hPa 16.1 km WSW 11.1 km/h / 3.1 m/s - N/A   Clear
2:52 AM 19.4 °C - 18.3 °C 93% 1002.7 hPa 11.3 km WSW 5.6 km/h / 1.5 m/s - N/A   Clear
3:45 AM 19.0 °C - 18.0 °C 94% 1003.6 hPa 9.7 km NNE 9.3 km/h / 2.6 m/s - N/A   Mostly Cloudy
3:52 AM 19.4 °C - 18.3 °C 93% 1003.0 hPa 9.7 km NNE 11.1 km/h / 3.1 m/s - N/A   Overcast
4:52 AM 19.4 °C - 17.8 °C 90% 1002.5 hPa 11.3 km NNE 5.6 km/h / 1.5 m/s - N/A   Partly Cloudy
5:52 AM 17.8 °C - 17.2 °C 96% 1002.3 hPa 9.7 km Calm Calm - N/A   Clear
6:52 AM 18.3 °C - 17.8 °C 97% 1002.5 hPa 9.7 km West 9.3 km/h / 2.6 m/s - N/A   Clear
7:23 AM 19.0 °C - 18.0 °C 94% 1002.6 hPa 12.9 km WNW 5.6 km/h / 1.5 m/s - N/A   Mostly Cloudy
7:52 AM 19.4 °C - 17.8 °C 90% 1002.5 hPa 16.1 km NW 9.3 km/h / 2.6 m/s - N/A   Overcast
8:52 AM 20.0 °C - 18.3 °C 90% 1002.4 hPa 11.3 km NNW 16.7 km/h / 4.6 m/s - N/A   Overcast
9:40 AM 22.0 °C - 18.0 °C 78% 1002.6 hPa 16.1 km WNW 13.0 km/h / 3.6 m/s - N/A   Overcast
9:52 AM 21.7 °C - 17.8 °C 78% 1002.2 hPa 16.1 km NW 14.8 km/h / 4.1 m/s - N/A   Mostly Cloudy
10:33 AM 23.0 °C - 18.0 °C 73% 1002.3 hPa 16.1 km NNW 11.1 km/h / 3.1 m/s - N/A   Overcast
10:52 AM 23.9 °C - 18.3 °C 71% 1001.8 hPa 16.1 km NNW 9.3 km/h / 2.6 m/s - N/A   Mostly Cloudy
11:19 AM 24.0 °C - 18.0 °C 69% 1002.3 hPa 16.1 km Variable 9.3 km/h / 2.6 m/s - N/A   Scattered Clouds
11:52 AM 25.0 °C - 17.2 °C 62% 1001.7 hPa 16.1 km WNW 14.8 km/h / 4.1 m/s - N/A   Scattered Clouds
12:52 PM 26.7 °C 27.4 °C 16.7 °C 54% 1000.9 hPa 16.1 km WNW 20.4 km/h / 5.7 m/s 27.8 km/h / 7.7 m/s N/A   Mostly Cloudy
1:52 PM 26.7 °C 27.1 °C 15.6 °C 50% 1000.5 hPa 16.1 km West 22.2 km/h / 6.2 m/s 33.3 km/h / 9.3 m/s N/A   Scattered Clouds
2:52 PM 27.2 °C 27.5 °C 15.6 °C 49% 1000.0 hPa 16.1 km WNW 18.5 km/h / 5.1 m/s - N/A   Mostly Cloudy
3:34 PM 23.0 °C - 17.0 °C 69% 1000.2 hPa 9.7 km NW 14.8 km/h / 4.1 m/s - 0.3 mm Rain , Thunderstorm Light Rain
3:52 PM 22.8 °C - 16.7 °C 68% 1000.1 hPa 16.1 km WNW 13.0 km/h / 3.6 m/s - 0.3 mm Thunderstorm Scattered Clouds
4:52 PM 23.3 °C - 16.1 °C 64% 1000.0 hPa 16.1 km North 16.7 km/h / 4.6 m/s - N/A Thunderstorm Scattered Clouds
5:52 PM 20.6 °C - 15.0 °C 70% 1001.8 hPa 16.1 km North 18.5 km/h / 5.1 m/s 29.6 km/h / 8.2 m/s 0.0 mm Rain Light Rain
6:52 PM 20.0 °C - 16.7 °C 81% 1001.4 hPa 16.1 km NW 5.6 km/h / 1.5 m/s - 0.3 mm Rain Light Rain
7:52 PM 18.9 °C - 15.6 °C 81% 1001.6 hPa 16.1 km Calm Calm - 0.0 mm   Partly Cloudy
8:03 PM 19.0 °C - 16.0 °C 83% 1001.9 hPa 14.5 km NNW 7.4 km/h / 2.1 m/s - N/A Thunderstorm Mostly Cloudy
8:18 PM 19.0 °C - 16.0 °C 83% 1001.9 hPa 16.1 km NW 5.6 km/h / 1.5 m/s - 0.0 mm   Mostly Cloudy
8:52 PM 18.9 °C - 16.1 °C 84% 1001.5 hPa 16.1 km NW 5.6 km/h / 1.5 m/s - 0.0 mm   Clear
9:52 PM 18.3 °C - 15.6 °C 84% 1001.5 hPa 16.1 km West 7.4 km/h / 2.1 m/s - 0.0 mm   Mostly Cloudy
10:52 PM 17.8 °C - 15.6 °C 87% 1001.4 hPa 16.1 km Calm Calm - N/A   Clear
11:52 PM 17.2 °C - 15.6 °C 90% 1001.3 hPa 16.1 km West 7.4 km/h / 2.1 m/s - N/A   Clear